TimeMST,TemperatureF,Dew PointF,Humidity,Sea Level PressureIn,VisibilityMPH,Wind Direction,Wind SpeedMPH,Gust SpeedMPH,PrecipitationIn,Events,Conditions,WindDirDegrees,DateUTC
12:15 AM,8.6,6.8,92,30.62,10.0,Calm,Calm,-,N/A,,Clear,0,2013-01-16 07:15:00
12:35 AM,6.8,3.2,85,30.61,10.0,Calm,Calm,-,N/A,,Clear,0,2013-01-16 07:35:00
12:55 AM,8.6,8.6,100,30.61,10.0,Calm,Calm,-,N/A,,Clear,0,2013-01-16 07:55:00
1:15 AM,8.6,6.8,92,30.61,10.0,Calm,Calm,-,N/A,,Clear,0,2013-01-16 08:15:00
1:35 AM,6.8,1.4,79,30.62,10.0,Calm,Calm,-,N/A,,Clear,0,2013-01-16 08:35:00
1:55 AM,6.8,1.4,79,30.62,10.0,Calm,Calm,-,N/A,,Clear,0,2013-01-16 08:55:00
2:15 AM,6.8,1.4,79,30.62,10.0,Calm,Calm,-,N/A,,Clear,0,2013-01-16 09:15:00
2:35 AM,6.8,1.4,79,30.62,10.0,Calm,Calm,-,N/A,,Clear,0,2013-01-16 09:35:00
2:55 AM,6.8,3.2,85,30.63,10.0,Calm,Calm,-,N/A,,Clear,0,2013-01-16 09:55:00
3:35 AM,6.8,1.4,79,30.64,10.0,Calm,Calm,-,N/A,,Clear,0,2013-01-16 10:35:00
3:55 AM,6.8,6.8,100,30.64,10.0,Calm,Calm,-,N/A,,Clear,0,2013-01-16 10:55:00
4:15 AM,5.0,1.4,85,30.64,10.0,Calm,Calm,-,N/A,,Clear,0,2013-01-16 11:15:00
4:35 AM,6.8,1.4,79,30.64,10.0,Calm,Calm,-,N/A,,Clear,0,2013-01-16 11:35:00
4:55 AM,5.0,1.4,85,30.63,10.0,Calm,Calm,-,N/A,,Clear,0,2013-01-16 11:55:00
5:15 AM,5.0,3.2,92,30.63,10.0,Calm,Calm,-,N/A,,Clear,0,2013-01-16 12:15:00
5:35 AM,5.0,-0.4,78,30.63,10.0,Calm,Calm,-,N/A,,Clear,0,2013-01-16 12:35:00
5:55 AM,3.2,-2.2,78,30.63,10.0,Calm,Calm,-,N/A,,Clear,0,2013-01-16 12:55:00
6:15 AM,3.2,-2.2,78,30.63,10.0,Calm,Calm,-,N/A,,Clear,0,2013-01-16 13:15:00
6:35 AM,3.2,3.2,100,30.63,10.0,Calm,Calm,-,N/A,,Clear,0,2013-01-16 13:35:00
6:55 AM,3.2,-0.4,85,30.63,10.0,Calm,Calm,-,N/A,,Clear,0,2013-01-16 13:55:00
7:15 AM,3.2,1.4,92,30.63,10.0,Calm,Calm,-,N/A,,Clear,0,2013-01-16 14:15:00
7:35 AM,3.2,1.4,92,30.64,10.0,SSW,3.5,-,N/A,,Clear,200,2013-01-16 14:35:00
7:55 AM,1.4,-2.2,85,30.65,10.0,West,3.5,-,N/A,,Clear,270,2013-01-16 14:55:00
8:15 AM,1.4,-0.4,92,30.65,10.0,Calm,Calm,-,N/A,,Clear,0,2013-01-16 15:15:00
8:35 AM,3.2,1.4,92,30.66,10.0,Calm,Calm,-,N/A,,Clear,0,2013-01-16 15:35:00
8:55 AM,6.8,3.2,85,30.66,10.0,Calm,Calm,-,N/A,,Clear,0,2013-01-16 15:55:00
9:15 AM,6.8,3.2,85,30.67,10.0,Calm,Calm,-,N/A,,Clear,0,2013-01-16 16:15:00
9:35 AM,8.6,3.2,79,30.68,10.0,Calm,Calm,-,N/A,,Clear,0,2013-01-16 16:35:00
9:55 AM,10.4,5.0,79,30.68,10.0,Calm,Calm,-,N/A,,Clear,0,2013-01-16 16:55:00
10:15 AM,12.2,8.6,85,30.69,10.0,Calm,Calm,-,N/A,,Clear,0,2013-01-16 17:15:00
10:35 AM,12.2,8.6,85,30.69,10.0,Calm,Calm,-,N/A,,Clear,0,2013-01-16 17:35:00
10:55 AM,15.8,10.4,79,30.69,10.0,Calm,Calm,-,N/A,,Clear,0,2013-01-16 17:55:00
11:15 AM,15.8,10.4,79,30.69,10.0,Calm,Calm,-,N/A,,Clear,0,2013-01-16 18:15:00
11:35 AM,15.8,10.4,79,30.68,10.0,Calm,Calm,-,N/A,,Clear,0,2013-01-16 18:35:00
12:15 PM,15.8,10.4,79,30.66,10.0,East,3.5,-,N/A,,Clear,100,2013-01-16 19:15:00
12:35 PM,17.6,10.4,73,30.66,10.0,Calm,Calm,-,N/A,,Clear,0,2013-01-16 19:35:00
1:15 PM,17.6,10.4,73,30.64,10.0,Calm,Calm,-,N/A,,Clear,0,2013-01-16 20:15:00
1:35 PM,17.6,10.4,73,30.63,10.0,Calm,Calm,-,N/A,,Clear,0,2013-01-16 20:35:00
1:55 PM,17.6,12.2,79,30.62,10.0,Calm,Calm,-,N/A,,Clear,0,2013-01-16 20:55:00
2:15 PM,17.6,12.2,79,30.62,10.0,Calm,Calm,-,N/A,,Clear,0,2013-01-16 21:15:00
2:35 PM,17.6,12.2,79,30.61,10.0,Calm,Calm,-,N/A,,Clear,0,2013-01-16 21:35:00
2:55 PM,17.6,10.4,73,30.62,10.0,Calm,Calm,-,N/A,,Clear,0,2013-01-16 21:55:00
3:15 PM,17.6,12.2,79,30.62,10.0,Calm,Calm,-,N/A,,Clear,0,2013-01-16 22:15:00
3:35 PM,19.4,10.4,68,30.62,10.0,Calm,Calm,-,N/A,,Clear,0,2013-01-16 22:35:00
3:55 PM,19.4,12.2,74,30.62,10.0,Calm,Calm,-,N/A,,Clear,0,2013-01-16 22:55:00
4:15 PM,19.4,12.2,74,30.62,10.0,SE,3.5,-,N/A,,Clear,130,2013-01-16 23:15:00
4:55 PM,17.6,10.4,73,30.62,10.0,Calm,Calm,-,N/A,,Mostly Cloudy,0,2013-01-16 23:55:00
5:15 PM,17.6,10.4,73,30.63,10.0,Calm,Calm,-,N/A,,Overcast,0,2013-01-17 00:15:00
5:35 PM,15.8,10.4,79,30.62,10.0,Calm,Calm,-,N/A,,Overcast,0,2013-01-17 00:35:00
5:55 PM,15.8,10.4,79,30.62,10.0,Calm,Calm,-,N/A,,Overcast,0,2013-01-17 00:55:00
6:15 PM,15.8,10.4,79,30.62,10.0,South,3.5,-,N/A,,Overcast,180,2013-01-17 01:15:00
6:35 PM,15.8,10.4,79,30.62,10.0,South,3.5,-,N/A,,Mostly Cloudy,180,2013-01-17 01:35:00
6:55 PM,12.2,10.4,92,30.62,10.0,SSE,3.5,-,N/A,,Partly Cloudy,160,2013-01-17 01:55:00
7:15 PM,12.2,8.6,85,30.62,10.0,SSW,4.6,-,N/A,,Clear,210,2013-01-17 02:15:00
7:35 PM,12.2,8.6,85,30.63,10.0,Calm,Calm,-,N/A,,Clear,0,2013-01-17 02:35:00
7:55 PM,10.4,6.8,85,30.63,10.0,Calm,Calm,-,N/A,,Clear,0,2013-01-17 02:55:00
8:15 PM,8.6,3.2,79,30.64,10.0,Calm,Calm,-,N/A,,Clear,0,2013-01-17 03:15:00
8:35 PM,8.6,3.2,79,30.64,10.0,Calm,Calm,-,N/A,,Partly Cloudy,0,2013-01-17 03:35:00
8:55 PM,10.4,6.8,85,30.64,10.0,Calm,Calm,-,N/A,,Partly Cloudy,0,2013-01-17 03:55:00
9:15 PM,8.6,1.4,73,30.63,10.0,WNW,4.6,-,N/A,,Clear,290,2013-01-17 04:15:00
9:35 PM,8.6,6.8,92,30.63,10.0,WNW,3.5,-,N/A,,Clear,290,2013-01-17 04:35:00
9:55 PM,8.6,5.0,85,30.63,10.0,West,3.5,-,N/A,,Clear,280,2013-01-17 04:55:00
10:35 PM,8.6,6.8,92,30.63,10.0,Calm,Calm,-,N/A,,Clear,0,2013-01-17 05:35:00
10:55 PM,6.8,5.0,92,30.63,10.0,WSW,3.5,-,N/A,,Clear,240,2013-01-17 05:55:00
11:15 PM,6.8,3.2,85,30.63,10.0,Calm,Calm,-,N/A,,Clear,0,2013-01-17 06:15:00
11:35 PM,6.8,5.0,92,30.63,10.0,Calm,Calm,-,N/A,,Clear,0,2013-01-17 06:35:00
11:55 PM,6.8,3.2,85,30.63,10.0,Calm,Calm,-,N/A,,Clear,0,2013-01-17 06:55:00